Location: Miles
(41.4492°N, 81.6087°W)
Time: 22:40:26
(UTC+00:00)

Vanguard 2 Rocket - Pass Details

Date: 20 September 2024
Orbit: 553 x 3298 km, 32.9° (Epoch: 12 October)

Event Time Altitude Azimuth Distance (km) Brightness Sun altitude
Rises 12:34:02 0° 274° (W) 6,160 10.5 14.4°
Reaches altitude 10° 12:39:09 10° 261° (W) 5,531 10.4 15.3°
Maximum altitude 12:50:56 22° 219° (SW) 5,104 10.6 17.4°
Drops below altitude 10° 13:04:14 10° 177° (S) 6,211 11.5 19.8°
Sets 13:10:41 0° 164° (SSE) 7,076 11.9 21.0°
